Weather History for Homestead AFB, FL

Change the Weather History Date:

Wednesday, May 14, 2014

  Actual Average Record
Temperature  
Mean Temperature 79 °F -  
Max Temperature 85 °F 86 °F 91 °F (1938)
Min Temperature 74 °F 66 °F 50 °F (1960)
Cooling Degree Days 14    
Growing Degree Days 29 (Base 50)    
Moisture  
Dew Point 69 °F    
Average Humidity 68    
Maximum Humidity 78    
Minimum Humidity 61    
Precipitation  
Precipitation 0.02 in - - ()
Sea Level Pressure  
Sea Level Pressure 30.02 in    
Wind  
Wind Speed 12 mph (ESE)    
Max Wind Speed 22 mph    
Max Gust Speed 25 mph    
Visibility 10 miles    
Events Thunderstorm    
Averages and records for this station are not official NWS values.
T = Trace of Precipitation, MM = Missing Value Source: NWS Daily Summary

Daily Weather History Graph

Daily Weather History Graph

Search for Another Location

Airport:

Trip Planner

Search our weather history database for the weather conditions in past years. The results will help you decide how hot, cold, wet, or windy it might be!

Date:

Astronomy

May. 14, 2014 Rise Set
Actual Time 6:36 AM EDT 7:59 PM EDT
Civil Twilight 6:12 AM EDT 8:24 PM EDT
Nautical Twilight 5:42 AM EDT 8:53 PM EDT
Astronomical Twilight 5:11 AM EDT 9:24 PM EDT
Moon 8:05 PM EDT (5/14) 6:29 AM EDT (5/14)
Length of Visible Light 14h 11m
Length of Day
13h 22m
Full, 100% of the Moon is Illuminated
May 14
Full
May 14
Full
May 21
Last Quarter
May 28
New
Jun 5
First Quarter

Hourly Weather History & Observations

Time (EDT) Temp. Heat Index Dew Point Humidity Pressure Visibility Wind Dir Wind Speed Gust Speed Precip Events Conditions
12:58 AM 78.6 °F - 67.8 °F 69% 30.03 in 10.0 mi East 10.4 mph - N/A   Partly Cloudy
1:58 AM 78.3 °F - 67.3 °F 69% 30.03 in 10.0 mi ESE 10.4 mph 17.3 mph N/A   Partly Cloudy
2:58 AM 78.1 °F - 67.8 °F 71% 30.01 in 10.0 mi East 11.5 mph - N/A   Clear
3:58 AM 78.3 °F - 68.4 °F 71% 29.99 in 10.0 mi East 13.8 mph - N/A   Partly Cloudy
4:58 AM 78.3 °F - 67.6 °F 70% 30.00 in 10.0 mi East 10.4 mph - N/A   Clear
5:58 AM 77.7 °F - 68.4 °F 73% 30.01 in 10.0 mi ESE 10.4 mph 18.4 mph 0.00 in   Partly Cloudy
6:58 AM 77.9 °F - 67.1 °F 69% 30.02 in 10.0 mi ESE 12.7 mph 20.7 mph N/A   Scattered Clouds
7:32 AM 78.8 °F - 68.0 °F 69% 30.03 in 10.0 mi SSE 18.4 mph 24.2 mph N/A   Partly Cloudy
7:33 AM 78.8 °F - 68.0 °F 69% 30.03 in 10.0 mi SSE 16.1 mph 24.2 mph N/A   Light Drizzle
7:41 AM 75.2 °F - 66.2 °F 73% 30.03 in 10.0 mi SSE 12.7 mph 24.2 mph N/A   Scattered Clouds
7:58 AM 74.8 °F - 65.7 °F 73% 30.04 in 10.0 mi SE 6.9 mph - 0.00 in   Partly Cloudy
8:58 AM 81.0 °F 83.3 °F 66.9 °F 62% 30.05 in 10.0 mi ESE 13.8 mph 20.7 mph N/A   Clear
9:58 AM 82.6 °F 85.7 °F 68.4 °F 62% 30.06 in 10.0 mi SE 11.5 mph 20.7 mph N/A   Scattered Clouds
10:58 AM 84.4 °F 88.7 °F 70.0 °F 62% 30.06 in 10.0 mi ESE 16.1 mph 20.7 mph N/A   Clear
11:58 AM 84.4 °F 89.0 °F 70.7 °F 63% 30.06 in 10.0 mi East 21.9 mph 25.3 mph N/A   Partly Cloudy
12:58 PM 84.7 °F 89.4 °F 70.5 °F 62% 30.05 in 10.0 mi East 18.4 mph 23.0 mph N/A   Partly Cloudy
1:58 PM 84.9 °F 90.7 °F 72.0 °F 65% 30.04 in 10.0 mi East 13.8 mph 24.2 mph N/A   Partly Cloudy
2:16 PM 82.4 °F 87.2 °F 71.6 °F 70% 30.02 in 10.0 mi East 21.9 mph 25.3 mph N/A Thunderstorm Light Drizzle
2:40 PM 77.0 °F - 69.8 °F 78% 30.02 in 10.0 mi SE 13.8 mph 25.3 mph N/A   Partly Cloudy
2:58 PM 76.6 °F - 67.8 °F 74% 30.02 in 10.0 mi ESE 10.4 mph - 0.02 in   Clear
3:58 PM 79.7 °F - 66.6 °F 64% 29.99 in 10.0 mi SE 8.1 mph - 0.00 in   Partly Cloudy
3:59 PM 80.6 °F 82.7 °F 66.2 °F 61% 29.98 in 10.0 mi ESE 10.4 mph - N/A   Light Drizzle
4:04 PM 80.6 °F 82.7 °F 66.2 °F 61% 29.98 in 10.0 mi ESE 13.8 mph - N/A   Partly Cloudy
4:58 PM 83.5 °F 87.2 °F 69.4 °F 62% 29.99 in 10.0 mi ESE 10.4 mph - 0.00 in   Clear
5:58 PM 82.4 °F 87.0 °F 71.4 °F 69% 29.98 in 10.0 mi East 15.0 mph 18.4 mph N/A   Clear
6:58 PM 80.2 °F 83.6 °F 70.3 °F 72% 29.98 in 10.0 mi ESE 10.4 mph - N/A   Partly Cloudy
7:58 PM 79.3 °F - 70.0 °F 73% 30.00 in 10.0 mi East 10.4 mph - N/A   Partly Cloudy
8:58 PM 79.0 °F - 68.9 °F 71% 30.02 in 10.0 mi ESE 9.2 mph - N/A   Partly Cloudy
9:58 PM 79.0 °F - 68.9 °F 71% 30.03 in 10.0 mi ESE 8.1 mph - N/A   Partly Cloudy
10:58 PM 79.2 °F - 68.9 °F 71% 30.04 in 10.0 mi SE 8.1 mph - N/A   Partly Cloudy
11:58 PM 79.2 °F - 68.2 °F 69% 30.03 in 10.0 mi SE 10.4 mph - N/A   Clear